Regional Weather Roundup
Issued by NWS Mt. Holly, NJ

Home | Current Version | Previous Version | Text Only | Print | Product List | Glossary On
Versions: 1 2 3 4 5 6 7 8 9 10 11 12 13 14 15 16 17 18 19 20 21 22 23 24 25 26 27
000
ASUS41 KPHI 240013
RWRPHI

REGIONAL WEATHER ROUNDUP
NATIONAL WEATHER SERVICE MOUNT HOLLY NJ
700 PM EST FRI FEB 23 2018

NOTE:  "FAIR" INDICATES FEW OR NO CLOUDS BELOW 12,000 FEET WITH NO
SIGNIFICANT WEATHER AND/OR OBSTRUCTIONS TO VISIBILITY.

 * = STATION DOES NOT REPORT PRECIPITATION (E.G. RAIN, SNOW, ETC.)
        OR FOG.

NJZ015>026-240100-
SOUTHERN NEW JERSEY

CITY           SKY/WX    TMP DP  RH WIND       PRES   REMARKS
POMONA         CLOUDY    44  44 100 CALM      30.33F FOG
6HR MIN TEMP:  44; 6HR MAX TEMP:  45;

WILDWOOD*      LGT RAIN  44  44 100 CALM      30.35R FOG
MILLVILLE      CLOUDY    45  45 100 CALM      30.32F FOG
WRIGHTSTOWN    CLOUDY    41  41 100 SE5       30.27F
MOUNT HOLLY    CLOUDY    42  42 100 CALM      30.31F
TRENTON        CLOUDY    42  40  92 E3        30.30F FOG
6HR MIN TEMP:  40; 6HR MAX TEMP:  42;


$$
NJZ001>014-240100-
NORTHERN NEW JERSEY

CITY           SKY/WX    TMP DP  RH WIND       PRES   REMARKS
SUSSEX         CLOUDY    38  37  97 SW3       30.28F FOG
ANDOVER*         N/A     37  37 100 S5        30.29F WCI  33
MORRISTOWN     CLOUDY    39  37  93 CALM      30.32F FOG
NEWARK         DRIZZLE   39  38  96 S5        30.32F FOG
TETERBORO      FOG       40  39  97 VRB3      30.31F VSB 1
CALDWELL       CLOUDY    39  39 100 S3        30.32F FOG
SOMERVILLE     CLOUDY    39  39 100 CALM      30.29F FOG
ALLAIRE*       CLOUDY    39  39 100 CALM      30.32F FOG
TOMS RIVER*    CLOUDY    41  41 100 CALM      30.33F FOG

$$
PAZ043-044-047-054-055-060>062-066>071-240100-
EASTERN PENNSYLVANIA

CITY           SKY/WX    TMP DP  RH WIND       PRES   REMARKS
PHILADELPHIA   CLOUDY    43  42  97 CALM      30.32F FOG
6HR MIN TEMP:  41; 6HR MAX TEMP:  43; 6HR PCP:  0.02;

NORTH PHILA    CLOUDY    44  42  93 CALM      30.32F FOG
BLUE BELL*     CLOUDY    41  41 100 CALM      30.31F
DOYLESTOWN     CLOUDY    40  40 100 CALM      30.30F FOG
QUAKERTOWN*    CLOUDY    39  39 100 CALM      30.31S FOG
PERKASIE*      CLOUDY    39  39 100 CALM      30.31F FOG
POTTSTOWN      CLOUDY    40  40 100 CALM      30.32S FOG
LANCASTER      CLOUDY    42  40  92 S5        30.31F
COATESVILLE    FOG       41  41 100 CALM      30.31F VSB<1/4
READING        CLOUDY    41  41 100 CALM      30.30F FOG
6HR MIN TEMP:  39; 6HR MAX TEMP:  41; 6HR PCP:  0.04;

ALLENTOWN      CLOUDY    40  38  93 CALM      30.30F FOG
6HR MIN TEMP:  38; 6HR MAX TEMP:  40; 6HR PCP:  0.05;

MOUNT POCONO   CLOUDY    32  32 100 S6        30.23F FOG     WCI  26
6HR MIN TEMP:  31; 6HR MAX TEMP:  32; 6HR PCP:  0.12;

HAZLETON       CLOUDY    36  36 100 CALM      30.27S FOG
LEHIGHTON      CLOUDY    37  37 100 CALM      30.31F
WILKES BARRE   CLOUDY    39  36  89 SW10      30.25S WCI  32

$$
DEZALL-MDZ008-012-015-019-020-240100-
DELAWARE AND EASTERN MARYLAND

CITY           SKY/WX    TMP DP  RH WIND       PRES   REMARKS
WILMINGTON     CLOUDY    43  43 100 SE6       30.32F FOG
6HR MIN TEMP:  41; 6HR MAX TEMP:  44; 6HR PCP: TRACE;

GEORGETOWN     CLOUDY    47  45  93 CALM      30.34S FOG
6HR MIN TEMP:  45; 6HR MAX TEMP:  47;

EASTON         CLOUDY    46  45  93 CALM      30.38S FOG
ABERDEEN       DRZL/FOG  43  43 100 CALM      30.33F VSB 1
PATUXENT       DRIZZLE   45  45 100 CALM      30.34  FOG
OCEAN CITY     FOG       44  44 100 CALM      30.34S VSB 1/2
WALLOPS ISLAND CLOUDY    49  49 100 CALM      30.35R FOG
CAMBRIDGE      CLOUDY    46  46 100 CALM      30.34F FOG
SALISBURY      CLOUDY    49  48  97 W3        30.33F FOG

$$
PAZ001-021-NYZ056-072-MDZ011-DCZ001-240100-
OTHER NEARBY LOCATIONS

CITY           SKY/WX    TMP DP  RH WIND       PRES   REMARKS
HARRISBURG     CLOUDY    43  40  89 S5        30.30F
STATE COLLEGE  CLOUDY    39  39 100 SW10      30.22F FOG     WCI  32
WILLIAMSPORT   CLOUDY    40  38  93 VRB7      30.25F
BINGHAMTON     CLOUDY    35  34  96 S10       30.15F WCI  27
NEW YORK CITY  CLOUDY    40  38  93 S8        30.32  WCI  34
BALTIMORE      CLOUDY    42  42 100 CALM      30.32F FOG
WASHINGTON DC  CLOUDY    47  44  90 S7        30.33F

$$




USA.gov is the U.S. government's official web portal to all federal, state and local government web resources and services.